GCR6514 ZUCK-ZLYL

Flight info

Callsign GCR6514
Flight time 1h 26m
Altitude 33100
Route OVNUL W677 IGIRO H39 AKD H36 NSH G212 WJC W193 YLX
Aircraft A321/M-SDE2E3GHIJ3J4J5LM1ORWXY/LB1D1

Departure

Time 2026-05-06 02:48
Airport Chongqing Jiangbei International Airport (ZUCK)

Arrival

Time 2026-05-06 04:15
Airport Yulin Yuyang Airport (ZLYL)
Time Latitude Longitude Altitude Speed Heading
2026-05-06 02:14 29.72751 106.65880 1343 ft 0 kts 58°
2026-05-06 02:39 29.72744 106.65866 1344 ft 4 kts 66°
2026-05-06 02:39 29.72738 106.65838 1345 ft 4 kts 99°
2026-05-06 02:39 29.72748 106.65813 1345 ft 4 kts 144°
2026-05-06 02:39 29.72753 106.65809 1345 ft 0 kts 148°
2026-05-06 02:41 29.72743 106.65816 1345 ft 3 kts 148°
2026-05-06 02:41 29.72714 106.65837 1343 ft 7 kts 148°
2026-05-06 02:42 29.72652 106.65881 1341 ft 15 kts 148°
2026-05-06 02:42 29.72570 106.65932 1340 ft 11 kts 163°
2026-05-06 02:42 29.72499 106.65912 1340 ft 11 kts 198°
2026-05-06 02:42 29.72439 106.65941 1337 ft 11 kts 114°
2026-05-06 02:43 29.72413 106.66038 1335 ft 14 kts 110°
2026-05-06 02:43 29.72337 106.66049 1335 ft 12 kts 197°
2026-05-06 02:43 29.72253 106.66020 1336 ft 13 kts 197°
2026-05-06 02:43 29.72235 106.66013 1336 ft 13 kts 198°
2026-05-06 02:44 29.72156 106.65983 1336 ft 14 kts 198°
2026-05-06 02:44 29.72086 106.65956 1337 ft 0 kts 198°
2026-05-06 02:44 29.72076 106.65953 1337 ft 3 kts 198°
2026-05-06 02:45 29.72040 106.65939 1337 ft 7 kts 198°
2026-05-06 02:45 29.71978 106.65917 1337 ft 11 kts 197°
2026-05-06 02:45 29.71891 106.65886 1338 ft 15 kts 197°
2026-05-06 02:45 29.71799 106.65854 1338 ft 15 kts 196°
2026-05-06 02:46 29.71687 106.65819 1340 ft 18 kts 195°
2026-05-06 02:46 29.71575 106.65782 1344 ft 11 kts 193°
2026-05-06 02:46 29.71531 106.65838 1342 ft 11 kts 113°
2026-05-06 02:46 29.71513 106.65897 1338 ft 13 kts 107°
2026-05-06 02:47 29.71476 106.66043 1337 ft 16 kts 106°
2026-05-06 02:47 29.71493 106.66157 1337 ft 15 kts 32°
2026-05-06 02:47 29.71602 106.66199 1336 ft 22 kts 16°
2026-05-06 02:47 29.71802 106.66267 1334 ft 70 kts 16°
2026-05-06 02:48 29.72492 106.66507 1330 ft 135 kts 17°
2026-05-06 02:48 29.73553 106.66875 1424 ft 175 kts 17°
2026-05-06 02:48 29.74700 106.67282 2044 ft 177 kts 17°
2026-05-06 02:48 29.75876 106.67690 2764 ft 176 kts 17°
2026-05-06 02:49 29.77010 106.68195 3387 ft 175 kts 30°
2026-05-06 02:49 29.78064 106.68903 3937 ft 176 kts 32°
2026-05-06 02:49 29.79096 106.69654 4494 ft 177 kts 33°
2026-05-06 02:49 29.80179 106.70452 4784 ft 195 kts 32°
2026-05-06 02:50 29.81383 106.71337 4934 ft 215 kts 32°
2026-05-06 02:50 29.82718 106.72310 5034 ft 240 kts 32°
2026-05-06 02:50 29.84208 106.73385 5342 ft 262 kts 32°
2026-05-06 02:50 29.85779 106.74511 6006 ft 269 kts 32°
2026-05-06 02:51 29.87382 106.75655 6749 ft 274 kts 32°
2026-05-06 02:51 29.89025 106.76845 7377 ft 282 kts 33°
2026-05-06 02:51 29.90692 106.78063 8081 ft 286 kts 33°
2026-05-06 02:51 29.92385 106.79301 8805 ft 289 kts 33°
2026-05-06 02:52 29.94115 106.80568 9258 ft 303 kts 34°
2026-05-06 02:52 29.95921 106.81891 9746 ft 311 kts 34°
2026-05-06 02:52 29.97783 106.83253 10097 ft 327 kts 33°
2026-05-06 02:52 29.99766 106.84704 10233 ft 348 kts 33°
2026-05-06 02:53 30.01875 106.86244 10365 ft 369 kts 33°
2026-05-06 02:53 30.04100 106.87871 10482 ft 388 kts 33°
2026-05-06 02:53 30.06424 106.89559 10723 ft 400 kts 33°
2026-05-06 02:53 30.08805 106.91264 11219 ft 405 kts 32°
2026-05-06 02:54 30.11215 106.92972 11776 ft 408 kts 32°
2026-05-06 02:54 30.13655 106.94680 12329 ft 412 kts 30°
2026-05-06 02:54 30.16274 106.96060 12862 ft 416 kts 19°
2026-05-06 02:54 30.19082 106.96913 13381 ft 419 kts
2026-05-06 02:55 30.21985 106.97379 13914 ft 423 kts
2026-05-06 02:55 30.24915 106.97843 14411 ft 427 kts
2026-05-06 02:55 30.27874 106.98321 14912 ft 431 kts
2026-05-06 02:55 30.30851 106.98808 15419 ft 434 kts
2026-05-06 02:56 30.33849 106.99301 15917 ft 438 kts
2026-05-06 02:56 30.36882 106.99798 16402 ft 442 kts
2026-05-06 02:56 30.39939 107.00294 16855 ft 445 kts
2026-05-06 02:56 30.43026 107.00794 17299 ft 449 kts
2026-05-06 02:57 30.46132 107.01298 17765 ft 452 kts
2026-05-06 02:57 30.49249 107.01808 18193 ft 455 kts
2026-05-06 02:57 30.52391 107.02329 18610 ft 458 kts
2026-05-06 02:57 30.55506 107.03215 18960 ft 465 kts 17°
2026-05-06 02:58 30.58487 107.04705 19353 ft 469 kts 27°
2026-05-06 02:58 30.61242 107.06746 19730 ft 471 kts 35°
2026-05-06 02:58 30.63904 107.08980 20115 ft 473 kts 35°
2026-05-06 02:58 30.66580 107.11217 20436 ft 476 kts 35°
2026-05-06 02:59 30.69276 107.13465 20819 ft 478 kts 35°
2026-05-06 02:59 30.71980 107.15720 21182 ft 479 kts 35°
2026-05-06 02:59 30.74694 107.17982 21520 ft 481 kts 35°
2026-05-06 02:59 30.77423 107.20258 21836 ft 483 kts 35°
2026-05-06 03:00 30.80160 107.22546 22162 ft 485 kts 35°
2026-05-06 03:00 30.82907 107.24844 22479 ft 488 kts 35°
2026-05-06 03:00 30.85664 107.27153 22796 ft 490 kts 35°
2026-05-06 03:00 30.88443 107.29477 23105 ft 492 kts 35°
2026-05-06 03:01 30.91223 107.31812 23422 ft 494 kts 35°
2026-05-06 03:01 30.94011 107.34160 23729 ft 495 kts 35°
2026-05-06 03:01 30.96805 107.36511 24017 ft 497 kts 35°
2026-05-06 03:01 30.99620 107.38881 24278 ft 499 kts 35°
2026-05-06 03:02 31.02429 107.41248 24557 ft 501 kts 35°
2026-05-06 03:02 31.05321 107.43527 24832 ft 501 kts 29°
2026-05-06 03:02 31.08367 107.45508 25084 ft 503 kts 27°
2026-05-06 03:02 31.11442 107.47486 25356 ft 505 kts 27°
2026-05-06 03:03 31.14527 107.49473 25659 ft 507 kts 27°
2026-05-06 03:03 31.17617 107.51467 25975 ft 508 kts 27°
2026-05-06 03:03 31.20717 107.53469 26277 ft 509 kts 27°
2026-05-06 03:03 31.23820 107.55476 26544 ft 510 kts 27°
2026-05-06 03:04 31.26923 107.57486 26880 ft 509 kts 27°
2026-05-06 03:04 31.30017 107.59494 27236 ft 508 kts 27°
2026-05-06 03:04 31.33103 107.61502 27629 ft 507 kts 27°
2026-05-06 03:04 31.36182 107.63503 28037 ft 505 kts 26°
2026-05-06 03:05 31.39211 107.65471 28398 ft 504 kts 26°
2026-05-06 03:05 31.42275 107.67463 28785 ft 503 kts 26°
2026-05-06 03:05 31.45368 107.69473 29170 ft 502 kts 26°
2026-05-06 03:05 31.48375 107.71433 29513 ft 501 kts 26°
2026-05-06 03:06 31.51411 107.73415 29870 ft 499 kts 26°
2026-05-06 03:06 31.54440 107.75395 30240 ft 498 kts 26°
2026-05-06 03:06 31.57459 107.77369 30646 ft 496 kts 26°
2026-05-06 03:06 31.60468 107.79337 30998 ft 494 kts 25°
2026-05-06 03:07 31.63402 107.81430 31363 ft 495 kts 32°
2026-05-06 03:07 31.66114 107.83940 31691 ft 497 kts 36°
2026-05-06 03:07 31.68777 107.86522 32050 ft 496 kts 36°
2026-05-06 03:07 31.71432 107.89100 32419 ft 494 kts 36°
2026-05-06 03:08 31.74075 107.91665 32784 ft 493 kts 36°
2026-05-06 03:08 31.76723 107.94228 32930 ft 493 kts 36°
2026-05-06 03:08 31.79365 107.96784 32960 ft 492 kts 36°
2026-05-06 03:09 31.84614 108.01883 32972 ft 491 kts 36°
2026-05-06 03:09 31.89910 108.07038 32977 ft 491 kts 36°
2026-05-06 03:10 31.95166 108.12162 32973 ft 491 kts 36°
2026-05-06 03:10 32.00429 108.17289 32967 ft 491 kts 36°
2026-05-06 03:11 32.05683 108.22424 32974 ft 492 kts 36°
2026-05-06 03:11 32.10939 108.27579 32981 ft 491 kts 37°
2026-05-06 03:12 32.16147 108.32811 32985 ft 493 kts 37°
2026-05-06 03:12 32.21339 108.38107 32988 ft 493 kts 37°
2026-05-06 03:13 32.26533 108.43399 32997 ft 493 kts 37°
2026-05-06 03:13 32.31740 108.48693 32998 ft 494 kts 37°
2026-05-06 03:14 32.36908 108.53950 32998 ft 494 kts 37°
2026-05-06 03:14 32.42102 108.59244 32998 ft 494 kts 37°
2026-05-06 03:15 32.47328 108.64562 33003 ft 495 kts 37°
2026-05-06 03:15 32.52540 108.69881 32991 ft 494 kts 37°
2026-05-06 03:16 32.57749 108.75207 32987 ft 495 kts 38°
2026-05-06 03:16 32.62969 108.80545 32995 ft 498 kts 38°
2026-05-06 03:17 32.68392 108.85637 32971 ft 491 kts 24°
2026-05-06 03:17 32.71524 108.87121 32972 ft 480 kts
2026-05-06 03:17 32.74796 108.87649 32975 ft 471 kts 355°
2026-05-06 03:17 32.78007 108.87252 32971 ft 461 kts 341°
2026-05-06 03:18 32.80990 108.86001 32965 ft 451 kts 328°
2026-05-06 03:18 32.83599 108.84001 32965 ft 443 kts 315°
2026-05-06 03:18 32.85869 108.81548 32962 ft 442 kts 313°
2026-05-06 03:19 32.90396 108.76601 32957 ft 443 kts 314°
2026-05-06 03:19 32.94949 108.71656 32967 ft 444 kts 314°
2026-05-06 03:20 33.01779 108.64210 32998 ft 443 kts 313°
2026-05-06 03:20 33.06317 108.59241 33004 ft 443 kts 313°
2026-05-06 03:21 33.10855 108.54267 33032 ft 443 kts 313°
2026-05-06 03:21 33.15382 108.49291 33060 ft 442 kts 313°
2026-05-06 03:22 33.19905 108.44308 33070 ft 442 kts 313°
2026-05-06 03:22 33.24427 108.39333 33081 ft 442 kts 313°
2026-05-06 03:23 33.29570 108.35263 33079 ft 454 kts 336°
2026-05-06 03:23 33.32660 108.34387 33081 ft 463 kts 349°
2026-05-06 03:23 33.35916 108.34447 33078 ft 473 kts
2026-05-06 03:24 33.39113 108.35511 33073 ft 483 kts 19°
2026-05-06 03:24 33.42155 108.37263 33072 ft 485 kts 21°
2026-05-06 03:24 33.48206 108.40863 33072 ft 486 kts 22°
2026-05-06 03:25 33.54275 108.44493 33073 ft 487 kts 22°
2026-05-06 03:25 33.60342 108.48123 33074 ft 487 kts 22°
2026-05-06 03:26 33.66411 108.51748 33074 ft 487 kts 22°
2026-05-06 03:26 33.72448 108.55350 33084 ft 488 kts 22°
2026-05-06 03:27 33.78513 108.58988 33086 ft 488 kts 22°
2026-05-06 03:27 33.84584 108.62641 33088 ft 488 kts 22°
2026-05-06 03:28 33.90666 108.66297 33078 ft 489 kts 22°
2026-05-06 03:28 33.96754 108.69964 33079 ft 489 kts 22°
2026-05-06 03:29 34.02824 108.73623 33079 ft 490 kts 22°
2026-05-06 03:29 34.08921 108.77310 33070 ft 490 kts 22°
2026-05-06 03:30 34.15007 108.80985 33071 ft 491 kts 22°
2026-05-06 03:30 34.20111 108.84010 33070 ft 489 kts 17°
2026-05-06 03:31 34.24407 108.85643 33070 ft 481 kts
2026-05-06 03:31 34.27699 108.86253 33073 ft 477 kts
2026-05-06 03:31 34.34292 108.87313 33075 ft 479 kts
2026-05-06 03:32 34.40891 108.88384 33079 ft 479 kts
2026-05-06 03:32 34.47506 108.89470 33083 ft 480 kts
2026-05-06 03:33 34.54125 108.90561 33084 ft 480 kts
2026-05-06 03:33 34.60737 108.91836 33084 ft 486 kts
2026-05-06 03:34 34.67244 108.94160 33086 ft 488 kts 11°
2026-05-06 03:34 34.72657 108.96127 33085 ft 488 kts 11°
2026-05-06 03:35 34.79171 108.98485 33086 ft 489 kts 11°
2026-05-06 03:35 34.86746 109.01281 33084 ft 490 kts 12°
2026-05-06 03:36 34.92187 109.03443 33084 ft 492 kts 13°
2026-05-06 03:36 34.98683 109.06080 33085 ft 492 kts 13°
2026-05-06 03:37 35.05193 109.08667 33086 ft 492 kts 12°
2026-05-06 03:37 35.11715 109.11232 33089 ft 493 kts 12°
2026-05-06 03:38 35.18202 109.13800 33085 ft 493 kts 13°
2026-05-06 03:38 35.24770 109.16412 33081 ft 493 kts 13°
2026-05-06 03:39 35.31263 109.18993 33081 ft 494 kts 13°
2026-05-06 03:39 35.37799 109.21604 33083 ft 495 kts 13°
2026-05-06 03:40 35.44308 109.24212 33088 ft 495 kts 13°
2026-05-06 03:40 35.50875 109.26831 33086 ft 495 kts 13°
2026-05-06 03:41 35.57425 109.29454 33087 ft 495 kts 13°
2026-05-06 03:41 35.63969 109.32085 33080 ft 495 kts 13°
2026-05-06 03:42 35.70520 109.34721 33078 ft 495 kts 13°
2026-05-06 03:42 35.77078 109.37316 33082 ft 493 kts
2026-05-06 03:43 35.83774 109.38677 33086 ft 486 kts
2026-05-06 03:43 35.90476 109.39786 33085 ft 486 kts
2026-05-06 03:44 35.97165 109.40906 33082 ft 486 kts
2026-05-06 03:44 36.03857 109.42037 33072 ft 485 kts
2026-05-06 03:45 36.10554 109.43166 33067 ft 486 kts
2026-05-06 03:45 36.17252 109.44302 33065 ft 486 kts
2026-05-06 03:46 36.23944 109.45430 33017 ft 487 kts
2026-05-06 03:46 36.27299 109.45994 32757 ft 486 kts
2026-05-06 03:46 36.30646 109.46560 32508 ft 486 kts
2026-05-06 03:47 36.34004 109.47130 32255 ft 487 kts
2026-05-06 03:47 36.37361 109.47702 32011 ft 488 kts
2026-05-06 03:47 36.40683 109.48273 31766 ft 488 kts
2026-05-06 03:47 36.44086 109.48612 31511 ft 483 kts 355°
2026-05-06 03:48 36.47447 109.48772 31260 ft 483 kts 355°
2026-05-06 03:48 36.50806 109.48926 31011 ft 484 kts 355°
2026-05-06 03:48 36.54133 109.49076 30765 ft 484 kts 355°
2026-05-06 03:48 36.57498 109.49231 30516 ft 485 kts 355°
2026-05-06 03:49 36.60875 109.49391 30265 ft 485 kts 355°
2026-05-06 03:49 36.64245 109.49549 30014 ft 485 kts 355°
2026-05-06 03:49 36.67628 109.49708 29763 ft 486 kts 355°
2026-05-06 03:49 36.71011 109.49867 29514 ft 487 kts 355°
2026-05-06 03:50 36.74404 109.50025 29260 ft 489 kts 355°
2026-05-06 03:50 36.77804 109.50184 29010 ft 490 kts 355°
2026-05-06 03:50 36.81213 109.50344 28761 ft 491 kts 355°
2026-05-06 03:50 36.84636 109.50507 28502 ft 492 kts 355°
2026-05-06 03:51 36.88059 109.50673 28261 ft 493 kts 356°
2026-05-06 03:51 36.91490 109.50840 28015 ft 495 kts 356°
2026-05-06 03:51 36.94932 109.51006 27761 ft 495 kts 356°
2026-05-06 03:51 36.98385 109.51167 27511 ft 496 kts 356°
2026-05-06 03:52 37.01835 109.51328 27258 ft 497 kts 356°
2026-05-06 03:52 37.05291 109.51494 27008 ft 498 kts 356°
2026-05-06 03:52 37.08761 109.51662 26759 ft 499 kts 356°
2026-05-06 03:52 37.12233 109.51828 26508 ft 499 kts 356°
2026-05-06 03:53 37.15704 109.51994 26262 ft 500 kts 356°
2026-05-06 03:53 37.19181 109.52160 26010 ft 501 kts 356°
2026-05-06 03:53 37.22673 109.52329 25757 ft 502 kts 356°
2026-05-06 03:53 37.26167 109.52499 25505 ft 504 kts 356°
2026-05-06 03:54 37.29675 109.52673 25198 ft 504 kts 356°
2026-05-06 03:54 37.33182 109.52845 24004 ft 507 kts 357°
2026-05-06 03:54 37.36728 109.53009 22850 ft 510 kts 357°
2026-05-06 03:54 37.40233 109.53177 22253 ft 500 kts 358°
2026-05-06 03:55 37.43691 109.53349 21471 ft 494 kts 358°
2026-05-06 03:55 37.47104 109.53517 20647 ft 488 kts 359°
2026-05-06 03:55 37.50471 109.53680 19874 ft 482 kts 358°
2026-05-06 03:55 37.53803 109.53838 19138 ft 476 kts 359°
2026-05-06 03:56 37.57077 109.53996 18283 ft 462 kts 359°
2026-05-06 03:56 37.60239 109.54151 16627 ft 450 kts 359°
2026-05-06 03:56 37.63298 109.54301 15678 ft 426 kts 360°
2026-05-06 03:56 37.66146 109.54442 15188 ft 397 kts 360°
2026-05-06 03:57 37.68925 109.54573 14459 ft 402 kts 360°
2026-05-06 03:57 37.71719 109.54705 13750 ft 401 kts
2026-05-06 03:57 37.74502 109.54839 13069 ft 399 kts
2026-05-06 03:57 37.77262 109.54972 12402 ft 395 kts
2026-05-06 03:58 37.79997 109.55108 11744 ft 392 kts
2026-05-06 03:58 37.82699 109.55242 11207 ft 385 kts
2026-05-06 03:58 37.85313 109.55370 11072 ft 366 kts
2026-05-06 03:58 37.87799 109.55490 10933 ft 349 kts
2026-05-06 03:59 37.90131 109.55604 10814 ft 334 kts
2026-05-06 03:59 37.92382 109.55715 10691 ft 319 kts
2026-05-06 03:59 37.94557 109.55818 10560 ft 307 kts
2026-05-06 03:59 37.96649 109.55912 10439 ft 295 kts
2026-05-06 04:00 37.98660 109.56005 10277 ft 284 kts
2026-05-06 04:00 38.00616 109.56099 10010 ft 279 kts
2026-05-06 04:00 38.02538 109.56193 9836 ft 275 kts
2026-05-06 04:00 38.04411 109.56554 9709 ft 275 kts 15°
2026-05-06 04:01 38.06172 109.57494 9577 ft 276 kts 28°
2026-05-06 04:01 38.07794 109.58804 9215 ft 280 kts 30°
2026-05-06 04:01 38.09449 109.60150 8836 ft 279 kts 30°
2026-05-06 04:01 38.11057 109.61461 8303 ft 272 kts 30°
2026-05-06 04:02 38.12632 109.62746 7663 ft 264 kts 30°
2026-05-06 04:02 38.14113 109.63954 7443 ft 242 kts 30°
2026-05-06 04:02 38.15446 109.65042 7316 ft 219 kts 30°
2026-05-06 04:02 38.16713 109.66077 7220 ft 214 kts 30°
2026-05-06 04:03 38.17968 109.67078 7121 ft 212 kts 24°
2026-05-06 04:03 38.19358 109.67612 7059 ft 209 kts
2026-05-06 04:03 38.20806 109.67467 6787 ft 210 kts 346°
2026-05-06 04:03 38.22145 109.66768 6519 ft 204 kts 339°
2026-05-06 04:04 38.23390 109.66073 6218 ft 188 kts 339°
2026-05-06 04:04 38.24563 109.65423 5981 ft 182 kts 339°
2026-05-06 04:04 38.25719 109.64788 5744 ft 180 kts 339°
2026-05-06 04:04 38.26853 109.64162 5505 ft 172 kts 339°
2026-05-06 04:05 38.27879 109.63591 5306 ft 153 kts 339°
2026-05-06 04:05 38.28832 109.63065 5091 ft 147 kts 339°
2026-05-06 04:05 38.29753 109.62555 4883 ft 142 kts 340°
2026-05-06 04:05 38.30652 109.62049 4713 ft 141 kts 340°
2026-05-06 04:06 38.31554 109.61545 4529 ft 142 kts 338°
2026-05-06 04:06 38.32448 109.61035 4342 ft 142 kts 338°
2026-05-06 04:06 38.33357 109.60533 4152 ft 142 kts 338°
2026-05-06 04:06 38.34255 109.60045 3994 ft 143 kts 339°
2026-05-06 04:07 38.35164 109.59559 3892 ft 130 kts 338°
2026-05-06 04:07 38.35951 109.59130 3988 ft 130 kts 339°
2026-05-06 04:07 38.36790 109.58674 4662 ft 133 kts 338°
2026-05-06 04:07 38.37623 109.58163 5303 ft 136 kts 337°
2026-05-06 04:08 38.38374 109.57395 5825 ft 146 kts 309°
2026-05-06 04:08 38.38504 109.55989 5920 ft 182 kts 258°
2026-05-06 04:08 38.37615 109.54733 5934 ft 214 kts 209°
2026-05-06 04:08 38.36104 109.54379 5932 ft 231 kts 180°
2026-05-06 04:09 38.34463 109.54492 5905 ft 241 kts 174°
2026-05-06 04:09 38.32783 109.54723 5922 ft 243 kts 172°
2026-05-06 04:09 38.31100 109.54948 5919 ft 244 kts 174°
2026-05-06 04:09 38.29406 109.55130 5915 ft 243 kts 175°
2026-05-06 04:10 38.27714 109.55266 5914 ft 244 kts 176°
2026-05-06 04:10 38.26018 109.55374 5908 ft 244 kts 176°
2026-05-06 04:10 38.24376 109.55739 5907 ft 234 kts 155°
2026-05-06 04:10 38.23083 109.56854 5912 ft 220 kts 128°
2026-05-06 04:11 38.22308 109.58447 5909 ft 207 kts 103°
2026-05-06 04:11 38.22093 109.60205 5914 ft 197 kts 80°
2026-05-06 04:11 38.22387 109.61858 5916 ft 189 kts 60°
2026-05-06 04:11 38.23098 109.63220 5908 ft 182 kts 41°
2026-05-06 04:12 38.24067 109.64233 5907 ft 179 kts 27°
2026-05-06 04:12 38.25232 109.64701 5887 ft 178 kts
2026-05-06 04:12 38.26434 109.64416 5618 ft 181 kts 337°
2026-05-06 04:12 38.27566 109.63702 5359 ft 180 kts 338°
2026-05-06 04:13 38.28669 109.63088 5126 ft 168 kts 339°
2026-05-06 04:13 38.29713 109.62527 4912 ft 159 kts 339°
2026-05-06 04:13 38.30717 109.62007 4730 ft 149 kts 340°
2026-05-06 04:13 38.31646 109.61494 4565 ft 143 kts 338°
2026-05-06 04:14 38.32555 109.60978 4349 ft 142 kts 339°
2026-05-06 04:14 38.33463 109.60478 4149 ft 142 kts 339°
2026-05-06 04:14 38.34375 109.59990 3944 ft 142 kts 338°
2026-05-06 04:14 38.35252 109.59505 3886 ft 125 kts 339°
2026-05-06 04:15 38.35899 109.59154 3885 ft 76 kts 336°
2026-05-06 04:15 38.36121 109.59054 3883 ft 20 kts 349°
2026-05-06 04:15 38.36258 109.59051 3882 ft 19 kts
2026-05-06 04:15 38.36325 109.59056 3884 ft 10 kts
2026-05-06 04:16 38.36391 109.59079 3884 ft 11 kts 45°
2026-05-06 04:16 38.36431 109.59183 3886 ft 15 kts 66°
2026-05-06 04:16 38.36466 109.59294 3884 ft 12 kts 76°
2026-05-06 04:16 38.36469 109.59378 3886 ft 8 kts 76°
2026-05-06 04:17 38.36489 109.59439 3886 ft 3 kts 66°
2026-05-06 04:17 38.36495 109.59458 3886 ft 0 kts 67°